Time,TemperatureF,DewpointF,PressureIn,WindDirection,WindDirectionDegrees,WindSpeedMPH,WindSpeedGustMPH,Humidity,HourlyPrecipIn,Conditions,Clouds,dailyrainin,SolarRadiationWatts/m^2,SoftwareType,DateUTC
2013-06-07 00:02:00,49.0,48.0,-100.00,WNW,302,3.0,11.0,96,0.00,,,0.00,0.000000,,2013-06-07 07:02:00,
2013-06-07 00:32:00,49.0,47.0,-100.00,NNW,327,4.0,7.0,94,0.00,,,0.00,0.000000,,2013-06-07 07:32:00,
2013-06-07 00:42:00,49.0,47.0,-100.00,NNW,327,4.0,7.0,94,0.00,,,0.00,0.000000,,2013-06-07 07:42:00,
2013-06-07 00:52:00,49.0,47.0,-100.00,NNW,327,4.0,7.0,94,0.00,,,0.00,0.000000,,2013-06-07 07:52:00,
2013-06-07 01:02:00,49.0,47.0,-100.00,NNW,327,4.0,7.0,94,0.00,,,0.00,0.000000,,2013-06-07 08:02:00,
2013-06-07 01:32:00,49.0,47.0,-100.00,NNW,339,3.0,8.0,94,0.00,,,0.00,0.000000,,2013-06-07 08:32:00,
2013-06-07 01:43:00,49.0,47.0,-100.00,NNW,339,3.0,8.0,94,0.00,,,0.00,0.000000,,2013-06-07 08:43:00,
2013-06-07 01:52:00,49.0,47.0,-100.00,NNW,339,3.0,8.0,94,0.00,,,0.00,0.000000,,2013-06-07 08:52:00,
2013-06-07 02:02:00,49.0,47.0,-100.00,NNW,339,3.0,8.0,94,0.00,,,0.00,0.000000,,2013-06-07 09:02:00,
2013-06-07 02:32:00,47.0,46.0,-100.00,North,352,2.0,9.0,96,0.00,,,0.00,0.000000,,2013-06-07 09:32:00,
2013-06-07 02:43:00,47.0,46.0,-100.00,North,352,2.0,9.0,96,0.00,,,0.00,0.000000,,2013-06-07 09:43:00,
2013-06-07 02:53:00,47.0,46.0,-100.00,North,352,2.0,9.0,96,0.00,,,0.00,0.000000,,2013-06-07 09:53:00,
2013-06-07 03:02:00,47.0,46.0,-100.00,North,352,2.0,9.0,96,0.00,,,0.00,0.000000,,2013-06-07 10:02:00,
2013-06-07 03:33:00,47.0,47.0,-100.00,NW,314,4.0,9.0,99,0.00,,,0.00,0.000000,,2013-06-07 10:33:00,
2013-06-07 03:42:00,47.0,47.0,-100.00,NW,314,4.0,9.0,99,0.00,,,0.00,0.000000,,2013-06-07 10:42:00,
2013-06-07 03:53:00,47.0,47.0,-100.00,NW,314,4.0,9.0,99,0.00,,,0.00,0.000000,,2013-06-07 10:53:00,
2013-06-07 04:02:00,47.0,47.0,-100.00,NW,314,4.0,9.0,99,0.00,,,0.00,0.000000,,2013-06-07 11:02:00,
2013-06-07 04:32:00,47.0,47.0,-100.00,NNW,329,5.0,9.0,100,0.00,,,0.00,0.000000,,2013-06-07 11:32:00,
2013-06-07 04:42:00,47.0,47.0,-100.00,NNW,329,5.0,9.0,100,0.00,,,0.00,0.000000,,2013-06-07 11:42:00,
2013-06-07 04:52:00,47.0,47.0,-100.00,NNW,329,5.0,9.0,100,0.00,,,0.00,0.000000,,2013-06-07 11:52:00,
2013-06-07 05:02:00,47.0,47.0,-100.00,NNW,329,5.0,9.0,100,0.00,,,0.00,0.000000,,2013-06-07 12:02:00,
2013-06-07 05:33:00,47.0,47.0,-100.00,NW,324,2.0,7.0,100,0.00,,,0.00,0.000000,,2013-06-07 12:33:00,
2013-06-07 05:42:00,47.0,47.0,-100.00,NW,324,2.0,7.0,100,0.00,,,0.00,0.000000,,2013-06-07 12:42:00,
2013-06-07 05:52:00,47.0,47.0,-100.00,NW,324,2.0,7.0,100,0.00,,,0.00,0.000000,,2013-06-07 12:52:00,
2013-06-07 06:02:00,47.0,47.0,-100.00,NW,324,2.0,7.0,100,0.00,,,0.00,0.000000,,2013-06-07 13:02:00,
2013-06-07 06:32:00,54.0,38.0,-100.00,ESE,115,4.0,7.0,54,0.00,,,0.00,8.000000,,2013-06-07 13:32:00,
2013-06-07 06:43:00,54.0,38.0,-100.00,ESE,115,4.0,7.0,54,0.00,,,0.00,8.000000,,2013-06-07 13:43:00,
2013-06-07 06:52:00,54.0,38.0,-100.00,ESE,115,4.0,7.0,54,0.00,,,0.00,8.000000,,2013-06-07 13:52:00,
2013-06-07 07:02:00,54.0,38.0,-100.00,ESE,115,4.0,7.0,54,0.00,,,0.00,8.000000,,2013-06-07 14:02:00,
2013-06-07 07:33:00,59.0,38.0,-100.00,East,96,2.0,5.0,45,0.00,,,0.00,124.000000,,2013-06-07 14:33:00,
2013-06-07 07:42:00,59.0,38.0,-100.00,East,96,2.0,5.0,45,0.00,,,0.00,124.000000,,2013-06-07 14:42:00,
2013-06-07 07:52:00,59.0,38.0,-100.00,East,96,2.0,5.0,45,0.00,,,0.00,124.000000,,2013-06-07 14:52:00,
2013-06-07 08:02:00,59.0,38.0,-100.00,East,96,2.0,5.0,45,0.00,,,0.00,124.000000,,2013-06-07 15:02:00,
2013-06-07 08:33:00,64.0,38.0,-100.00,North,8,2.0,5.0,38,0.00,,,-99.99,307.000000,,2013-06-07 15:33:00,
2013-06-07 08:43:00,64.0,38.0,-100.00,North,8,2.0,5.0,38,0.00,,,-99.99,307.000000,,2013-06-07 15:43:00,
2013-06-07 08:53:00,64.0,38.0,-100.00,North,8,2.0,5.0,38,0.00,,,-99.99,307.000000,,2013-06-07 15:53:00,
2013-06-07 09:03:00,64.0,38.0,-100.00,North,8,2.0,5.0,38,0.00,,,-99.99,307.000000,,2013-06-07 16:03:00,
2013-06-07 09:33:00,67.0,49.0,-100.00,NNW,330,1.0,4.0,53,0.00,,,0.00,508.000000,,2013-06-07 16:33:00,
2013-06-07 09:43:00,67.0,49.0,-100.00,NNW,330,1.0,4.0,53,0.00,,,0.00,508.000000,,2013-06-07 16:43:00,
2013-06-07 09:53:00,67.0,49.0,-100.00,NNW,330,1.0,4.0,53,0.00,,,0.00,508.000000,,2013-06-07 16:53:00,
2013-06-07 10:02:00,67.0,49.0,-100.00,NNW,330,1.0,4.0,53,0.00,,,0.00,508.000000,,2013-06-07 17:02:00,
2013-06-07 10:32:00,65.0,52.0,-100.00,NNW,334,3.0,5.0,63,0.00,,,0.00,696.000000,,2013-06-07 17:32:00,
2013-06-07 10:43:00,65.0,52.0,-100.00,NNW,334,3.0,5.0,63,0.00,,,0.00,696.000000,,2013-06-07 17:43:00,
2013-06-07 10:52:00,65.0,52.0,-100.00,NNW,334,3.0,5.0,63,0.00,,,0.00,696.000000,,2013-06-07 17:52:00,
2013-06-07 11:03:00,65.0,52.0,-100.00,NNW,334,3.0,5.0,63,0.00,,,0.00,696.000000,,2013-06-07 18:03:00,
2013-06-07 11:38:00,71.0,52.0,-100.00,NNW,332,3.0,6.0,51,0.00,,,0.00,851.000000,,2013-06-07 18:38:00,
2013-06-07 11:45:00,71.0,52.0,-100.00,NNW,332,3.0,6.0,51,0.00,,,0.00,851.000000,,2013-06-07 18:45:00,
2013-06-07 11:58:00,71.0,52.0,-100.00,NNW,332,3.0,6.0,51,0.00,,,0.00,851.000000,,2013-06-07 18:58:00,
2013-06-07 12:03:00,71.0,52.0,-100.00,NNW,332,3.0,6.0,51,0.00,,,0.00,851.000000,,2013-06-07 19:03:00,
2013-06-07 12:39:00,76.0,51.0,-100.00,North,3,3.0,7.0,41,0.00,,,0.00,983.000000,,2013-06-07 19:39:00,
2013-06-07 12:50:00,76.0,51.0,-100.00,North,3,3.0,7.0,41,0.00,,,0.00,983.000000,,2013-06-07 19:50:00,
2013-06-07 12:56:00,76.0,51.0,-100.00,North,3,3.0,7.0,41,0.00,,,0.00,983.000000,,2013-06-07 19:56:00,
2013-06-07 13:02:00,76.0,51.0,-100.00,North,3,3.0,7.0,41,0.00,,,0.00,983.000000,,2013-06-07 20:02:00,
2013-06-07 13:40:00,75.0,46.0,-100.00,North,351,5.0,9.0,36,0.00,,,0.00,1039.000000,,2013-06-07 20:40:00,
2013-06-07 13:50:00,75.0,46.0,-100.00,North,351,5.0,9.0,36,0.00,,,0.00,1039.000000,,2013-06-07 20:50:00,
2013-06-07 13:57:00,75.0,46.0,-100.00,North,351,5.0,9.0,36,0.00,,,0.00,1039.000000,,2013-06-07 20:57:00,
2013-06-07 14:03:00,75.0,46.0,-100.00,North,351,5.0,9.0,36,0.00,,,0.00,1039.000000,,2013-06-07 21:03:00,
2013-06-07 14:42:00,72.0,44.0,-100.00,North,356,6.0,12.0,36,0.00,,,0.00,1045.000000,,2013-06-07 21:42:00,
2013-06-07 14:47:00,72.0,44.0,-100.00,North,356,6.0,12.0,36,0.00,,,0.00,1045.000000,,2013-06-07 21:47:00,
2013-06-07 14:58:00,72.0,44.0,-100.00,North,356,6.0,12.0,36,0.00,,,0.00,1045.000000,,2013-06-07 21:58:00,
2013-06-07 15:05:00,72.0,44.0,-100.00,North,356,6.0,12.0,36,0.00,,,0.00,1045.000000,,2013-06-07 22:05:00,
2013-06-07 15:39:00,72.0,49.0,-100.00,North,355,5.0,11.0,45,0.00,,,-99.99,646.000000,,2013-06-07 22:39:00,
2013-06-07 15:49:00,72.0,49.0,-100.00,North,355,5.0,11.0,45,0.00,,,-99.99,646.000000,,2013-06-07 22:49:00,
2013-06-07 15:58:00,72.0,49.0,-100.00,North,355,5.0,11.0,45,0.00,,,-99.99,646.000000,,2013-06-07 22:58:00,
2013-06-07 16:04:00,72.0,49.0,-100.00,North,355,5.0,11.0,45,0.00,,,-99.99,646.000000,,2013-06-07 23:04:00,
2013-06-07 16:52:00,70.0,51.0,-100.00,NNW,348,6.0,15.0,51,0.00,,,0.00,733.000000,,2013-06-07 23:52:00,
2013-06-07 16:59:00,70.0,51.0,-100.00,NNW,348,6.0,15.0,51,0.00,,,0.00,733.000000,,2013-06-07 23:59:00,
2013-06-07 17:36:00,69.0,55.0,-100.00,NNW,343,6.0,14.0,61,0.00,,,0.00,267.000000,,2013-06-08 00:36:00,
2013-06-07 17:46:00,69.0,55.0,-100.00,NNW,343,6.0,14.0,61,0.00,,,0.00,267.000000,,2013-06-08 00:46:00,
2013-06-07 18:03:00,69.0,55.0,-100.00,NNW,343,6.0,14.0,61,0.00,,,0.00,267.000000,,2013-06-08 01:03:00,
2013-06-07 18:39:00,66.0,53.0,-100.00,NNW,337,7.0,14.0,64,0.00,,,0.00,588.000000,,2013-06-08 01:39:00,
2013-06-07 18:47:00,66.0,53.0,-100.00,NNW,337,7.0,14.0,64,0.00,,,0.00,588.000000,,2013-06-08 01:47:00,
2013-06-07 18:58:00,66.0,53.0,-100.00,NNW,337,7.0,14.0,64,0.00,,,0.00,588.000000,,2013-06-08 01:58:00,
2013-06-07 19:04:00,66.0,53.0,-100.00,NNW,337,7.0,14.0,64,0.00,,,0.00,588.000000,,2013-06-08 02:04:00,
2013-06-07 19:37:00,63.0,55.0,-100.00,NNW,336,7.0,13.0,75,0.00,,,0.00,324.000000,,2013-06-08 02:37:00,
2013-06-07 19:49:00,63.0,55.0,-100.00,NNW,336,7.0,13.0,75,0.00,,,0.00,324.000000,,2013-06-08 02:49:00,
2013-06-07 19:57:00,63.0,55.0,-100.00,NNW,336,7.0,13.0,75,0.00,,,0.00,324.000000,,2013-06-08 02:57:00,
2013-06-07 20:04:00,63.0,55.0,-100.00,NNW,336,7.0,13.0,75,0.00,,,0.00,324.000000,,2013-06-08 03:04:00,
2013-06-07 20:39:00,56.0,53.0,-100.00,NW,324,7.0,13.0,90,0.00,,,0.00,114.000000,,2013-06-08 03:39:00,
2013-06-07 20:52:00,56.0,53.0,-100.00,NW,324,7.0,13.0,90,0.00,,,0.00,114.000000,,2013-06-08 03:52:00,
2013-06-07 20:58:00,56.0,53.0,-100.00,NW,324,7.0,13.0,90,0.00,,,0.00,114.000000,,2013-06-08 03:58:00,
2013-06-07 21:03:00,56.0,53.0,-100.00,NW,324,7.0,13.0,90,0.00,,,0.00,114.000000,,2013-06-08 04:03:00,
2013-06-07 21:33:00,54.0,53.0,-100.00,NW,324,5.0,13.0,95,0.00,,,0.00,8.000000,,2013-06-08 04:33:00,
2013-06-07 21:42:00,54.0,53.0,-100.00,NW,324,5.0,13.0,95,0.00,,,0.00,8.000000,,2013-06-08 04:42:00,
2013-06-07 21:53:00,54.0,53.0,-100.00,NW,324,5.0,13.0,95,0.00,,,0.00,8.000000,,2013-06-08 04:53:00,
2013-06-07 22:02:00,54.0,53.0,-100.00,NW,324,5.0,13.0,95,0.00,,,0.00,8.000000,,2013-06-08 05:02:00,
2013-06-07 22:32:00,54.0,53.0,-100.00,NW,323,3.0,9.0,97,0.00,,,0.00,0.000000,,2013-06-08 05:32:00,
2013-06-07 22:42:00,54.0,53.0,-100.00,NW,323,3.0,9.0,97,0.00,,,0.00,0.000000,,2013-06-08 05:42:00,
2013-06-07 22:52:00,54.0,53.0,-100.00,NW,323,3.0,9.0,97,0.00,,,0.00,0.000000,,2013-06-08 05:52:00,
2013-06-07 23:02:00,54.0,53.0,-100.00,NW,323,3.0,9.0,97,0.00,,,0.00,0.000000,,2013-06-08 06:02:00,
2013-06-07 23:32:00,54.0,53.0,-100.00,NNW,335,5.0,10.0,97,0.00,,,0.00,0.000000,,2013-06-08 06:32:00,
2013-06-07 23:42:00,54.0,53.0,-100.00,NNW,335,5.0,10.0,97,0.00,,,0.00,0.000000,,2013-06-08 06:42:00,
2013-06-07 23:52:00,54.0,53.0,-100.00,NNW,335,5.0,10.0,97,0.00,,,0.00,0.000000,,2013-06-08 06:52:00,